Zurück zum Katalog

FENGYUN 1C DEB

LostSSO
NORAD 32138·DEBRIS·🇨🇳 China

Gestartet May 10, 1999 von Taiyuan Satellite Launch Center

Loading…

Nächste Überflüge (nächste 24 Stunden)

TLE

VeraltetSource: Space-Track

Epoche: Apr 9, 2024, 14:08 UTC

1 32138U 99025CSG 24100.58944878  .00006105  00000-0  23355-2 0  9994
2 32138  98.9150 233.2262 0019034 295.7395  64.1822 14.30919678870004

Verfolge FENGYUN 1C DEB in Echtzeit mit AllMySat

Download on the App Store